This demonstration page uses our WeatherBlox Daily Observations layout. Learn more.

40.92945, -100.16068

Hourly Observations for December 29, 2018

Temp ( °F °C ) Dew Point ( °F °C ) Humidity (%) Winds ( mph kmh ) Pressure ( in mb ) Visibility ( mi km ) Precip ( " mm )
12:15 am 00:15 Clear 2 -16.6 -2 -18.8 83 83 W 7 11 30.59 1036 10 16.0934 0 0
12:35 am 00:35 Clear 1 -17 -3 -19.2 83 83 W 7 11 30.59 1036 10 16.0934 0 0
12:55 am 00:55 Clear 2 -16.6 -2 -18.9 83 83 W 6 9 30.59 1036 10 16.0934 0 0
1:15 am 01:15 Clear 2 -16.9 -3 -19.2 82 82 W 6 9 30.59 1036 10 16.0934 0 0
1:35 am 01:35 Clear 2 -16.9 -2 -19.1 83 83 NW 6 9 30.59 1036 10 16.0934 0 0
1:55 am 01:55 Clear 1 -17.3 -3 -19.7 82 82 NNW 3 6 30.59 1036 10 16.0934 0 0
2:15 am 02:15 Clear 2 -16.5 -1 -18.6 84 84 NW 5 7 30.59 1036 10 16.0934 0 0
2:35 am 02:35 Clear 2 -16.9 -2 -19.1 83 83 NW 6 9 30.56 1035 10 16.0934 0 0
2:55 am 02:55 Clear 1 -17 -3 -19.4 82 82 WNW 3 6 30.59 1036 10 16.0934 0 0
3:15 am 03:15 Clear 3 -16 -1 -18.4 82 82 WNW 6 9 30.56 1035 10 16.0934 0 0
3:35 am 03:35 Partly Cloudy 4 -15.5 0 -17.8 83 83 WNW 7 11 30.56 1035 10 16.0934 0 0
3:55 am 03:55 Partly Cloudy 4 -15.7 0 -18 83 83 Calm 30.53 1034 10 16.0934 0 0
4:15 am 04:15 Clear 3 -16 -1 -18.2 83 83 W 3 6 30.53 1034 10 16.0934 0 0
4:35 am 04:35 Partly Cloudy 3 -16.3 -2 -18.7 82 82 Calm 30.53 1034 10 16.0934 0 0
4:55 am 04:55 Partly Cloudy 2 -16.7 -2 -19.1 82 82 Calm 30.56 1035 10 16.0934 0 0
5:15 am 05:15 Clear with Mist and Fog 1 -17 -3 -19.3 82 82 W 5 7 30.53 1034 4 6.43736 0 0
5:35 am 05:35 Clear with Mist and Fog 2 -16.7 -2 -19 83 83 Calm 30.5 1033 4 6.43736 0 0
5:55 am 05:55 Clear with Mist and Fog 2 -16.7 -2 -19 83 83 WSW 3 6 30.5 1033 4 6.43736 0 0
6:15 am 06:15 Clear 1 -17.2 -3 -19.5 82 82 Calm 30.56 1035 10 16.0934 0 0
6:35 am 06:35 Clear 1 -17.3 -3 -19.6 82 82 W 3 6 30.56 1035 10 16.0934 0 0
6:55 am 06:55 Clear 1 -17 -3 -19.2 83 83 Calm 30.56 1035 10 16.0934 0 0
7:15 am 07:15 Clear 2 -16.9 -2 -19.1 83 83 Calm 30.56 1035 7 11.26538 0 0
7:35 am 07:35 Clear 1 -17 -3 -19.3 82 82 Calm 30.56 1035 10 16.0934 0 0
7:55 am 07:55 Clear 2 -16.7 -2 -18.9 83 83 Calm 30.56 1035 7 11.26538 0 0
8:15 am 08:15 Sunny with Mist and Fog 2 -16.7 -2 -19 83 83 Calm 30.56 1035 5 8.0467 0 0
8:35 am 08:35 Sunny 2 -16.5 -2 -18.8 83 83 Calm 30.53 1034 10 16.0934 0 0
8:55 am 08:55 Sunny 4 -15.8 0 -18 83 83 Calm 30.53 1034 10 16.0934 0 0
9:15 am 09:15 Sunny 5 -15.1 1 -17.1 85 85 Calm 30.53 1034 10 16.0934 0 0
9:35 am 09:35 Sunny 6 -14.7 2 -16.8 84 84 Calm 30.53 1034 10 16.0934 0 0
9:55 am 09:55 Sunny 7 -14 3 -16 85 85 Calm 30.53 1034 10 16.0934 0 0
10:15 am 10:15 Sunny 10 -12.5 6 -14.3 87 87 Calm 30.48 1032 10 16.0934 0 0
10:35 am 10:35 Sunny 13 -10.8 9 -12.6 87 87 S 3 6 30.45 1031 10 16.0934 0 0
10:55 am 10:55 Sunny 18 -8 14 -10 86 86 SW 9 15 30.39 1029 10 16.0934 0 0
11:15 am 11:15 Sunny 19 -7 14 -9.9 80 80 SW 8 13 30.39 1029 10 16.0934 0 0
11:35 am 11:35 Sunny 20 -6.6 14 -10.1 76 76 WSW 9 15 30.33 1027 10 16.0934 0 0
11:55 am 11:55 Sunny 21 -6.2 14 -10 75 75 WSW 8 13 30.33 1027 10 16.0934 0 0
12:15 pm 12:15 Sunny 22 -5.8 15 -9.7 74 74 SW 12 19 30.3 1026 10 16.0934 0 0
12:35 pm 12:35 Sunny 22 -5.5 15 -9.5 74 74 SW 13 20 30.27 1025 10 16.0934 0 0
12:55 pm 12:55 Sunny 22 -5.5 15 -9.5 74 74 WSW 6 9 30.27 1025 10 16.0934 0 0
1:15 pm 13:15 Sunny 23 -4.8 16 -9.1 72 72 WSW 8 13 30.24 1024 10 16.0934 0 0
1:35 pm 13:35 Sunny 24 -4.2 16 -8.7 71 71 SW 12 19 30.21 1023 10 16.0934 0 0
1:55 pm 13:55 Sunny 25 -4.1 17 -8.5 72 72 SW 14 22 30.21 1023 10 16.0934 0 0
2:15 pm 14:15 Sunny 25 -3.7 17 -8.3 71 71 SSW 13 20 30.21 1023 10 16.0934 0 0
2:35 pm 14:35 Sunny 26 -3.5 18 -8 71 71 SW 14 22 30.21 1023 10 16.0934 0 0
2:55 pm 14:55 Sunny 25 -3.9 17 -8.1 73 73 SSW 12 19 30.21 1023 10 16.0934 0 0
3:15 pm 15:15 Sunny 25 -4 17 -8.2 73 73 SW 12 19 30.21 1023 10 16.0934 0 0
3:35 pm 15:35 Sunny 25 -3.7 18 -8 72 72 SSW 14 22 30.18 1022 10 16.0934 0 0
3:55 pm 15:55 Sunny 26 -3.5 18 -7.7 73 73 S 12 19 30.18 1022 10 16.0934 0 0
4:15 pm 16:15 Sunny 26 -3.5 19 -7.5 74 74 SSW 14 22 30.18 1022 10 16.0934 0 0
4:35 pm 16:35 Sunny 26 -3.2 19 -7.3 74 74 SSW 13 20 30.18 1022 10 16.0934 0 0
4:55 pm 16:55 Sunny 26 -3.5 19 -7.5 74 74 SSW 14 22 30.18 1022 10 16.0934 0 0
5:15 pm 17:15 Sunny 25 -4 18 -7.9 75 75 SSW 16 26 30.18 1022 10 16.0934 0 0
5:35 pm 17:35 Clear 25 -4 18 -8 74 74 SSW 15 24 30.15 1021 10 16.0934 0 0
5:55 pm 17:55 Clear 24 -4.5 17 -8.3 75 75 S 14 22 30.15 1021 10 16.0934 0 0
6:15 pm 18:15 Clear 24 -4.5 17 -8.2 76 76 SSW 13 20 30.15 1021 10 16.0934 0 0
6:35 pm 18:35 Clear 24 -4.6 17 -8.3 76 76 SSW 13 20 30.15 1021 10 16.0934 0 0
6:55 pm 18:55 Clear 24 -4.6 17 -8.4 75 75 SSW 13 20 30.15 1021 10 16.0934 0 0
7:15 pm 19:15 Clear 24 -4.7 17 -8.5 75 75 SSW 14 22 30.15 1021 10 16.0934 0 0
7:35 pm 19:35 Clear 23 -4.8 17 -8.5 76 76 SSW 15 24 30.15 1021 10 16.0934 0 0
7:55 pm 19:55 Clear 23 -5 17 -8.6 76 76 SSW 14 22 30.15 1021 10 16.0934 0 0
8:15 pm 20:15 Clear 23 -4.8 17 -8.6 75 75 SSW 14 22 30.15 1021 10 16.0934 0 0
8:35 pm 20:35 Clear 23 -5 16 -8.8 75 75 SSW 14 22 30.15 1021 10 16.0934 0 0
8:55 pm 20:55 Clear 22 -5.3 16 -9 76 76 SSW 16 26 30.18 1022 10 16.0934 0 0
9:15 pm 21:15 Clear 22 -5.5 16 -9.1 76 76 SSW 17 28 30.15 1021 10 16.0934 0 0
9:35 pm 21:35 Clear 21 -6 15 -9.4 77 77 SSW 14 22 30.15 1021 10 16.0934 0 0
9:55 pm 21:55 Clear 22 -5.7 16 -9.1 77 77 SSW 16 26 30.09 1019 10 16.0934 0 0
10:15 pm 22:15 Clear 22 -5.5 16 -9 77 77 SSW 16 26 30.09 1019 10 16.0934 0 0
10:35 pm 22:35 Clear 22 -5.7 15 -9.2 77 77 SSW 17 28 30.09 1019 10 16.0934 0 0
10:55 pm 22:55 Clear 22 -5.8 15 -9.2 77 77 SW 14 22 30.12 1020 10 16.0934 0 0
11:15 pm 23:15 Clear 22 -5.6 16 -9.1 77 77 SSW 14 22 30.06 1018 10 16.0934 0 0
11:35 pm 23:35 Clear 22 -5.7 16 -9.1 77 77 SW 14 22 30.06 1018 10 16.0934 0 0
11:55 pm 23:55 Clear 23 -5.2 16 -9 75 75 SW 13 20 30.06 1018 10 16.0934 0 0

Powered by AerisWeather